Regional Weather Roundup
Issued by NWS

Home | Current Version | Previous Version | Graphics & Text | Print | Product List | Glossary On
Versions: 1 2 3 4 5 6 7 8 9 10 11 12 13 14 15 16 17 18 19 20 21 22 23 24 25 26 27 28 29 30 31 32 33 34 35 36 37 38 39 40 41 42 43 44 45 46 47 48 49 50
000
ASUS45 KABQ 252310
RWRNM
NEW MEXICO REGIONAL WEATHER ROUNDUP
NATIONAL WEATHER SERVICE ALBUQUERQUE NM
500 PM MDT WED MAY 25 2016

NOTE: "FAIR" MEANS FEW OR NO CLOUDS BELOW 12,000 FEET AGL WITH NO
       SIGNIFICANT WEATHER OR OBSTRUCTIONS TO VISION.

      THIS PRODUCT IS RELEASED AS TWO VERSIONS.  ONE VERSION NEAR
      THE TOP OF THE HOUR CONTAINING PRELIMINARY DATA FROM ALBUQUERQUE
      AND OTHER STATIONS.  A FINAL VERSION WITH ADDITIONAL DATA IS
      ISSUED ABOUT 10 MINUTES AFTER THE HOUR.

NMZ501-503-504-510>518-260000-
NORTHWEST PLATEAU/NORTHCENTRAL MOUNTAINS

CITY           SKY/WX    TMP DP  RH WIND       PRES   REMARKS
FARMINGTON     FAIR      74  -4   4 VRB6      29.97F
LOS ALAMOS     FAIR      70  12  10 SW14G21   30.11F
SANTA FE       FAIR      75  14  10 SW8G23    30.06F
TAOS           FAIR      72  12  10 W15G21    30.09F
ANGEL FIRE     FAIR      64  15  15 W7        30.15F

$$
NMZ402-403-502-505>509-260000-
WESTCENTRAL MOUNTAINS/SOUTHWEST MOUNTAINS

CITY           SKY/WX    TMP DP  RH WIND       PRES   REMARKS
GALLUP         FAIR      73  15  11 SW21G41   30.04F
GRANTS         FAIR      73  15  10 SW13G22   30.06S
SILVER CITY      N/A     81  16   9 SW18G29   30.05F

$$
NMZ407-409-411-412-260000-
SOUTHERN DESERTS

CITY           SKY/WX    TMP DP  RH WIND       PRES   REMARKS
LORDSBURG      FAIR      88  14   6 SW17G25   29.97F
DEMING         FAIR      87  15   7 W20G33    29.97F
LAS CRUCES     FAIR      88  13   6 SW25G37   29.99F
HOLLOMAN AFB   FAIR      86  21   9 SW14G21   29.96F
ALAMOGORDO     FAIR      86  25  10 SW12G24   29.98F
T OR C         FAIR      85  10   6 SW20G35   29.96F

$$
NMZ519>523-260000-
CENTRAL VALLEYS/CENTRAL HIGHLANDS

CITY           SKY/WX    TMP DP  RH WIND       PRES   REMARKS
ALBUQUERQUE    PTSUNNY   79  17  10 SW10G21   29.98F
DOUBLE EAGLE   PTSUNNY   73  21  14 SE8G20    30.03F
MORIARTY ARPT  FAIR      78  13   8 SW13G23   30.07F
CLINES CORNERS FAIR      72  16  12 SW21G28   30.10F
BELEN          FAIR      84  14   7 S18G28    29.96F
SOCORRO        FAIR      85  17   8 SW18G26   29.95F

$$
NMZ524>526-539-540-260000-
SOUTHCENTRAL MOUNTAINS

CITY           SKY/WX    TMP DP  RH WIND       PRES   REMARKS
RUIDOSO          N/A     73  18  12 SW24G35   30.16F

$$
NMZ527>531-260000-
NORTHEAST HIGHLANDS/NORTHEAST PLAINS

CITY           SKY/WX    TMP DP  RH WIND       PRES   REMARKS
LAS VEGAS      FAIR      73  10   9 SW21G30   30.08S
RATON          FAIR      77  11   8 S15       29.99F
CLAYTON        FAIR      83  16   8 S14G23    29.94F

$$
NMZ532>537-260000-
EASTCENTRAL PLAINS

CITY           SKY/WX    TMP DP  RH WIND       PRES   REMARKS
TUCUMCARI      FAIR      90  14   6 SW26G33   29.89F
CANNON AFB     FAIR      88  19   8 SW15G28   29.95F
CLOVIS AIRPORT FAIR      88  28  11 SW15G22   29.96F

$$
NMZ028-029-538-260000-
SOUTHEAST PLAINS

CITY           SKY/WX    TMP DP  RH WIND       PRES   REMARKS
ROSWELL        FAIR      93  19   7 SW21G32   29.91F
ARTESIA        FAIR      91  25   9 W26G33    29.93S
CARLSBAD       FAIR      96  20   6 W24G33    29.90F
HOBBS          SUNNY     93  19   7 SW21      29.95F


$$




USA.gov is the U.S. government's official web portal to all federal, state and local government web resources and services.